Morristown, NJ

6:13 AM EST on November 21, 2017 (GMT -0500)
Morristown Municipal

Weather History for KMMU - January, 2013

Change the Weather History Date:

Friday, January 4, 2013

  Actual Average Record
Temperature  
Mean Temperature 34 °F -  
Max Temperature 37 °F 39 °F 66 °F (2000)
Min Temperature 30 °F 20 °F -8 °F (1981)
Degree Days  
Heating Degree Days 32    
Moisture  
Dew Point 21 °F    
Average Humidity 61    
Maximum Humidity 69    
Minimum Humidity 44    
Precipitation  
Precipitation 0.00 in - - ()
Sea Level Pressure  
Sea Level Pressure 30.03 in    
Wind  
Wind Speed 9 mph (West)    
Max Wind Speed 18 mph    
Max Gust Speed 26 mph    
Visibility 10 miles    
Events      
Averages and records for this station are not official NWS values.
T = Trace of Precipitation, MM = Missing Value Source: NWS Daily Summary

Daily Weather History Graph

Daily Weather History Graph

Search for Another Location

Airport or City:

Trip Planner

Search our weather history database for the weather conditions in past years. The results will help you decide how hot, cold, wet, or windy it might be!

Date:

Astronomy

Jan. 04, 2013 Rise Set
Actual Time 7:22 AM EST 4:43 PM EST
Civil Twilight 6:51 AM EST 5:14 PM EST
Nautical Twilight 6:17 AM EST 5:48 PM EST
Astronomical Twilight 5:43 AM EST 6:21 PM EST
Moon No Moon Rise 11:00 AM EST (1/4)
Length of Visible Light 10h 22m
Length of Day
9h 21m
Waning Gibbous, 55% of the Moon is Illuminated
Jan 4
Waning Gibbous
Jan 4
Last Quarter
Jan 11
New
Jan 18
First Quarter
Jan 26
Full

Hourly Weather History & Observations

Time (EST) Temp. Windchill Dew Point Humidity Pressure Visibility Wind Dir Wind Speed Gust Speed Precip Events Conditions
12:15 AM 32.0 °F 24.8 °F 21.2 °F 64% 30.06 in 10.0 mi WSW 8.1 mph 16.1 mph N/A   Mostly Cloudy
12:35 AM 32.0 °F 24.8 °F 21.2 °F 64% 30.06 in 10.0 mi West 8.1 mph - N/A   Scattered Clouds
12:55 AM 32.0 °F 23.6 °F 21.2 °F 64% 30.06 in 10.0 mi West 10.4 mph 16.1 mph N/A   Clear
1:15 AM 32.0 °F 24.8 °F 21.2 °F 64% 30.06 in 10.0 mi West 8.1 mph - N/A   Clear
1:35 AM 30.2 °F 23.4 °F 21.2 °F 69% 30.06 in 10.0 mi West 6.9 mph - N/A   Clear
1:55 AM 30.2 °F 22.6 °F 21.2 °F 69% 30.06 in 10.0 mi West 8.1 mph - N/A   Clear
2:15 AM 30.2 °F 22.6 °F 21.2 °F 69% 30.06 in 10.0 mi West 8.1 mph - N/A   Clear
2:35 AM 30.2 °F 25.4 °F 21.2 °F 69% 30.07 in 10.0 mi WSW 4.6 mph - N/A   Clear
2:55 AM 30.2 °F 24.3 °F 21.2 °F 69% 30.07 in 10.0 mi West 5.8 mph - N/A   Clear
3:15 AM 30.2 °F 21.9 °F 21.2 °F 69% 30.07 in 10.0 mi West 9.2 mph - N/A   Clear
3:35 AM 30.2 °F 23.4 °F 21.2 °F 69% 30.07 in 10.0 mi West 6.9 mph - N/A   Mostly Cloudy
3:55 AM 30.2 °F 24.3 °F 21.2 °F 69% 30.07 in 10.0 mi WSW 5.8 mph - N/A   Overcast
4:15 AM 32.0 °F 26.4 °F 23.0 °F 69% 30.06 in 10.0 mi WSW 5.8 mph - N/A   Overcast
6:42 AM 33.8 °F 25.3 °F 21.2 °F 60% 30.08 in 10.0 mi West 11.5 mph 19.6 mph N/A   Overcast
7:45 AM 33.8 °F 25.3 °F 23.0 °F 65% 30.07 in 10.0 mi West 11.5 mph 17.3 mph N/A   Overcast
8:45 AM 33.8 °F 26.4 °F 21.2 °F 60% 30.08 in 10.0 mi West 9.2 mph 16.1 mph N/A   Overcast
9:45 AM 35.6 °F 26.6 °F 21.2 °F 56% 30.09 in 10.0 mi West 13.8 mph 26.5 mph N/A   Mostly Cloudy
10:45 AM 35.6 °F 26.6 °F 19.4 °F 52% 30.07 in 10.0 mi WNW 13.8 mph 24.2 mph N/A   Mostly Cloudy
11:45 AM 35.6 °F 27.5 °F 19.4 °F 52% 30.03 in 10.0 mi West 11.5 mph 23.0 mph N/A   Mostly Cloudy
12:45 PM 37.4 °F 27.5 °F 19.4 °F 48% 30.00 in 10.0 mi West 18.4 mph 25.3 mph N/A   Mostly Cloudy
1:45 PM 37.4 °F 28.9 °F 19.4 °F 48% 29.98 in 10.0 mi West 13.8 mph 25.3 mph N/A   Scattered Clouds
2:45 PM 37.4 °F 28.9 °F 21.2 °F 52% 29.96 in 10.0 mi West 13.8 mph 23.0 mph N/A   Clear
3:45 PM 35.6 °F 26.6 °F 21.2 °F 56% 29.97 in 10.0 mi West 13.8 mph 25.3 mph N/A   Clear
4:45 PM 35.6 °F 28.0 °F 19.4 °F 52% 29.97 in 10.0 mi West 10.4 mph 16.1 mph N/A   Partly Cloudy
5:45 PM 35.6 °F 28.6 °F 15.8 °F 44% 29.99 in 10.0 mi WSW 9.2 mph - N/A   Clear
6:45 PM 35.6 °F 28.6 °F 19.4 °F 52% 29.98 in 10.0 mi West 9.2 mph 18.4 mph N/A   Clear
7:45 PM 33.8 °F 27.0 °F 19.4 °F 56% 29.99 in 10.0 mi West 8.1 mph - N/A   Clear
8:45 PM 33.8 °F 25.8 °F 19.4 °F 56% 29.98 in 10.0 mi West 10.4 mph 15.0 mph N/A   Clear
9:45 PM 33.8 °F 28.6 °F 19.4 °F 56% 29.99 in 10.0 mi WNW 5.8 mph 16.1 mph N/A   Clear
9:55 PM 32.0 °F 24.8 °F 21.2 °F 64% 29.99 in 10.0 mi West 8.1 mph - N/A   Clear
10:15 PM 32.0 °F 24.2 °F 21.2 °F 64% 30.00 in 10.0 mi West 9.2 mph - N/A   Clear
10:35 PM 32.0 °F 25.6 °F 21.2 °F 64% 30.00 in 10.0 mi WSW 6.9 mph - N/A   Clear
10:55 PM 32.0 °F 26.4 °F 21.2 °F 64% 30.00 in 10.0 mi West 5.8 mph - N/A   Clear
11:15 PM 32.0 °F 27.5 °F 21.2 °F 64% 30.01 in 10.0 mi West 4.6 mph - N/A   Clear
11:35 PM 32.0 °F 24.8 °F 19.4 °F 60% 30.01 in 10.0 mi West 8.1 mph - N/A   Clear
11:55 PM 32.0 °F 23.6 °F 19.4 °F 60% 30.02 in 10.0 mi West 10.4 mph - N/A   Clear